Time,TemperatureF,DewpointF,PressureIn,WindDirection,WindDirectionDegrees,WindSpeedMPH,WindSpeedGustMPH,Humidity,HourlyPrecipIn,Conditions,Clouds,dailyrainin,SoftwareType,DateUTC
2013-11-18 16:44:00,42.4,37.9,29.37,ESE,122,4.6,4.6,84,0.00,CLR,FEW,0.17,WeatherDisplay:10.37,2013-11-18 16:44:00,
2013-11-18 16:45:00,42.1,37.6,29.88,West,280,4.6,4.6,84,0.00,-RA,FEW,0.17,WeatherDisplay:10.37,2013-11-18 16:45:00,
2013-11-18 16:50:00,42.3,37.8,29.88,WSW,258,5.8,5.8,84,0.00,-RA,FEW,0.17,WeatherDisplay:10.37,2013-11-18 16:50:00,
2013-11-18 16:55:00,41.9,37.7,29.88,West,280,3.5,3.5,85,0.00,-RA,FEW,0.17,WeatherDisplay:10.37,2013-11-18 16:55:00,
2013-11-18 17:00:00,41.7,37.5,29.88,West,280,1.2,2.3,85,0.00,-RA,FEW,0.17,WeatherDisplay:10.37,2013-11-18 17:00:00,
2013-11-18 17:05:00,41.4,37.5,29.88,SE,145,3.5,3.5,86,0.00,SCT,FEW,0.17,WeatherDisplay:10.37,2013-11-18 17:05:00,
2013-11-18 17:10:00,41.4,37.5,29.88,WSW,258,2.8,2.8,86,0.00,SCT,FEW,0.17,WeatherDisplay:10.37,2013-11-18 17:10:00,
2013-11-18 17:15:00,41.2,37.3,29.88,WSW,258,4.6,4.6,86,0.00,SCT,FEW,0.17,WeatherDisplay:10.37,2013-11-18 17:15:00,
2013-11-18 17:20:00,41.4,37.8,29.88,ESE,122,4.6,4.6,87,0.00,SCT,FEW,0.17,WeatherDisplay:10.37,2013-11-18 17:20:00,
2013-11-18 17:25:00,41.4,37.5,29.88,WSW,258,4.6,4.6,86,0.00,SCT,FEW,0.17,WeatherDisplay:10.37,2013-11-18 17:25:00,
2013-11-18 17:30:00,41.4,37.5,29.88,WSW,258,8.1,8.1,86,0.00,SCT,FEW,0.17,WeatherDisplay:10.37,2013-11-18 17:30:00,
2013-11-18 17:35:00,41.0,37.1,29.88,West,280,5.8,5.8,86,0.00,SCT,FEW,0.17,WeatherDisplay:10.37,2013-11-18 17:35:00,
2013-11-18 17:40:00,40.8,37.3,29.89,WSW,258,3.5,3.5,87,0.00,SCT,FEW,0.17,WeatherDisplay:10.37,2013-11-18 17:40:00,
2013-11-18 17:45:00,40.6,37.1,29.89,WSW,258,4.8,4.8,87,0.00,SCT,FEW,0.17,WeatherDisplay:10.37,2013-11-18 17:45:00,
2013-11-18 17:50:00,40.6,37.1,29.89,WSW,258,3.5,3.5,87,0.00,SCT,FEW,0.17,WeatherDisplay:10.37,2013-11-18 17:50:00,
2013-11-18 17:55:00,40.5,36.9,29.89,WSW,258,4.6,4.6,87,0.00,SCT,FEW,0.17,WeatherDisplay:10.37,2013-11-18 17:55:00,
2013-11-18 18:00:00,40.5,37.2,29.89,WSW,258,3.5,3.5,88,0.00,SCT,FEW,0.17,WeatherDisplay:10.37,2013-11-18 18:00:00,
2013-11-18 18:05:00,40.5,37.2,29.89,WSW,258,4.6,4.6,88,0.00,FEW,,0.17,WeatherDisplay:10.37,2013-11-18 18:05:00,
2013-11-18 18:10:00,40.5,37.2,29.89,WSW,258,5.8,5.8,88,0.00,FEW,,0.17,WeatherDisplay:10.37,2013-11-18 18:10:00,
2013-11-18 18:15:00,40.3,37.0,29.89,West,280,3.5,3.6,88,0.00,FEW,,0.17,WeatherDisplay:10.37,2013-11-18 18:15:00,
2013-11-18 18:20:00,40.5,37.2,29.89,West,280,4.6,4.6,88,0.00,FEW,,0.17,WeatherDisplay:10.37,2013-11-18 18:20:00,
2013-11-18 18:25:00,40.1,36.8,29.89,WSW,258,5.8,5.8,88,0.00,FEW,,0.17,WeatherDisplay:10.37,2013-11-18 18:25:00,
2013-11-18 18:30:00,40.1,36.8,29.89,West,280,3.5,3.5,88,0.00,FEW,,0.17,WeatherDisplay:10.37,2013-11-18 18:30:00,
2013-11-18 18:35:00,39.9,36.9,29.89,WNW,302,4.8,4.8,89,0.00,FEW,,0.17,WeatherDisplay:10.37,2013-11-18 18:35:00,
2013-11-18 18:40:00,39.9,36.9,29.89,West,280,4.6,4.6,89,0.00,FEW,,0.17,WeatherDisplay:10.37,2013-11-18 18:40:00,
2013-11-18 18:45:00,39.7,36.8,29.89,WSW,258,3.5,3.5,89,0.00,FEW,,0.17,WeatherDisplay:10.37,2013-11-18 18:45:00,
2013-11-18 18:50:00,39.7,36.8,29.89,ESE,122,5.8,5.8,89,0.00,FEW,,0.17,WeatherDisplay:10.37,2013-11-18 18:50:00,
2013-11-18 18:55:00,39.6,36.6,29.89,WSW,258,5.8,5.8,89,0.00,FEW,,0.17,WeatherDisplay:10.37,2013-11-18 18:55:00,
2013-11-18 19:00:00,39.4,36.4,29.89,West,280,3.5,3.5,89,0.00,FEW,,0.17,WeatherDisplay:10.37,2013-11-18 19:00:00,
2013-11-18 19:05:00,39.4,36.7,29.89,ESE,122,6.9,6.9,90,0.00,FEW,,0.17,WeatherDisplay:10.37,2013-11-18 19:05:00,
2013-11-18 19:10:00,39.2,36.5,29.89,WSW,258,2.5,3.6,90,0.00,FEW,,0.17,WeatherDisplay:10.37,2013-11-18 19:10:00,
2013-11-18 19:15:00,39.4,36.7,29.89,WSW,258,4.6,4.6,90,0.00,FEW,,0.17,WeatherDisplay:10.37,2013-11-18 19:15:00,
2013-11-18 19:20:00,39.2,36.5,29.87,WSW,258,2.3,3.1,90,0.00,FEW,,0.17,WeatherDisplay:10.37,2013-11-18 19:20:00,
2013-11-18 19:25:00,39.0,36.3,29.87,WSW,258,5.9,5.9,90,0.00,FEW,,0.17,WeatherDisplay:10.37,2013-11-18 19:25:00,
2013-11-18 19:30:00,39.0,36.3,29.87,WSW,258,3.5,3.5,90,0.00,FEW,,0.17,WeatherDisplay:10.37,2013-11-18 19:30:00,
2013-11-18 19:35:00,39.0,36.3,29.87,West,280,5.8,5.8,90,0.00,FEW,,0.17,WeatherDisplay:10.37,2013-11-18 19:35:00,
2013-11-18 19:40:00,38.8,36.2,29.87,NNE,32,5.8,5.8,90,0.00,FEW,,0.17,WeatherDisplay:10.37,2013-11-18 19:40:00,
2013-11-18 19:45:00,38.8,36.2,29.87,WSW,258,5.8,5.8,90,0.00,FEW,,0.17,WeatherDisplay:10.37,2013-11-18 19:45:00,
2013-11-18 19:50:00,38.8,36.2,29.87,WSW,258,5.8,5.8,90,0.00,FEW,,0.17,WeatherDisplay:10.37,2013-11-18 19:50:00,
2013-11-18 19:55:00,39.0,36.3,29.87,South,190,5.8,5.8,90,0.00,FEW,,0.17,WeatherDisplay:10.37,2013-11-18 19:55:00,
2013-11-18 20:00:00,38.8,36.2,29.87,WSW,258,5.8,5.8,90,0.00,FEW,,0.17,WeatherDisplay:10.37,2013-11-18 20:00:00,
2013-11-18 20:05:00,38.7,36.0,29.87,WSW,258,5.8,5.8,90,0.00,FEW,,0.17,WeatherDisplay:10.37,2013-11-18 20:05:00,
2013-11-18 20:10:00,38.5,35.8,29.87,ESE,122,5.8,5.8,90,0.00,FEW,,0.17,WeatherDisplay:10.37,2013-11-18 20:10:00,
2013-11-18 20:15:00,38.7,36.0,29.87,WSW,258,5.8,5.8,90,0.00,FEW,,0.17,WeatherDisplay:10.37,2013-11-18 20:15:00,
2013-11-18 20:20:00,38.3,35.6,29.87,SE,145,2.7,4.2,90,0.00,FEW,,0.17,WeatherDisplay:10.37,2013-11-18 20:20:00,
2013-11-18 20:25:00,38.1,35.4,29.87,WSW,258,5.8,5.8,90,0.00,FEW,,0.17,WeatherDisplay:10.37,2013-11-18 20:25:00,
2013-11-18 20:30:00,38.3,35.6,29.87,WSW,258,5.8,5.8,90,0.00,FEW,,0.17,WeatherDisplay:10.37,2013-11-18 20:30:00,
2013-11-18 20:35:00,37.9,35.3,29.87,WSW,258,5.8,5.8,90,0.00,FEW,,0.17,WeatherDisplay:10.37,2013-11-18 20:35:00,
2013-11-18 20:40:00,37.9,35.3,29.87,WSW,258,4.6,4.6,90,0.00,FEW,,0.17,WeatherDisplay:10.37,2013-11-18 20:40:00,
2013-11-18 20:45:00,38.1,35.7,29.87,WSW,258,5.8,5.8,91,0.00,FEW,,0.17,WeatherDisplay:10.37,2013-11-18 20:45:00,
2013-11-18 20:50:00,38.1,35.7,29.87,WSW,258,5.8,5.8,91,0.00,FEW,,0.17,WeatherDisplay:10.37,2013-11-18 20:50:00,
2013-11-18 20:55:00,38.3,35.9,29.87,WSW,258,6.9,6.9,91,0.00,FEW,,0.17,WeatherDisplay:10.37,2013-11-18 20:55:00,
2013-11-18 21:00:00,38.3,35.9,29.87,WSW,258,8.1,8.1,91,0.00,FEW,,0.17,WeatherDisplay:10.37,2013-11-18 21:00:00,
2013-11-18 21:05:00,37.9,35.3,29.87,ESE,122,4.6,4.6,90,0.00,FEW,,0.17,WeatherDisplay:10.37,2013-11-18 21:05:00,
2013-11-18 21:10:00,37.9,35.5,29.87,WSW,258,7.1,7.1,91,0.00,FEW,,0.17,WeatherDisplay:10.37,2013-11-18 21:10:00,
2013-11-18 21:16:00,37.9,35.5,29.87,WSW,258,9.8,9.8,91,0.00,FEW,,0.17,WeatherDisplay:10.37,2013-11-18 21:16:00,
2013-11-18 21:21:00,38.1,35.7,29.87,WSW,258,3.5,4.0,91,0.00,FEW,,0.17,WeatherDisplay:10.37,2013-11-18 21:21:00,
2013-11-18 21:26:00,38.3,35.9,29.87,ESE,122,6.9,6.9,91,0.00,FEW,,0.17,WeatherDisplay:10.37,2013-11-18 21:26:00,
2013-11-18 21:31:00,38.1,35.7,29.87,WSW,258,5.8,5.8,91,0.00,FEW,,0.17,WeatherDisplay:10.37,2013-11-18 21:31:00,
2013-11-18 21:36:00,37.9,35.5,29.87,WSW,258,11.5,11.5,91,0.00,FEW,,0.17,WeatherDisplay:10.37,2013-11-18 21:36:00,
2013-11-18 21:41:00,37.8,35.4,29.87,SE,145,8.2,8.2,91,0.00,FEW,,0.17,WeatherDisplay:10.37,2013-11-18 21:41:00,
2013-11-18 21:46:00,37.8,35.4,29.87,West,280,6.9,6.9,91,0.00,FEW,,0.17,WeatherDisplay:10.37,2013-11-18 21:46:00,
2013-11-18 21:51:00,37.8,35.4,29.87,ESE,122,7.1,7.1,91,0.00,FEW,,0.17,WeatherDisplay:10.37,2013-11-18 21:51:00,
2013-11-18 21:56:00,37.9,35.5,29.87,WSW,258,8.1,8.1,91,0.00,FEW,,0.17,WeatherDisplay:10.37,2013-11-18 21:56:00,
2013-11-18 22:01:00,37.8,35.4,29.87,WSW,258,3.5,4.8,91,0.00,FEW,,0.17,WeatherDisplay:10.37,2013-11-18 22:01:00,
2013-11-18 22:06:00,37.6,35.2,29.87,ESE,122,10.4,10.4,91,0.00,SCT,FEW,0.17,WeatherDisplay:10.37,2013-11-18 22:06:00,
2013-11-18 22:11:00,37.6,35.2,29.87,West,280,8.6,8.6,91,0.00,SCT,FEW,0.17,WeatherDisplay:10.37,2013-11-18 22:11:00,
2013-11-18 22:16:00,37.6,35.2,29.87,WSW,258,11.5,11.5,91,0.00,SCT,FEW,0.17,WeatherDisplay:10.37,2013-11-18 22:16:00,
2013-11-18 22:21:00,37.6,35.2,29.87,West,280,1.2,4.6,91,0.00,SCT,FEW,0.17,WeatherDisplay:10.37,2013-11-18 22:21:00,
2013-11-18 22:26:00,37.6,35.2,29.87,West,280,6.9,6.9,91,0.00,SCT,FEW,0.17,WeatherDisplay:10.37,2013-11-18 22:26:00,
2013-11-18 22:31:00,37.8,35.4,29.87,WSW,258,5.8,5.8,91,0.00,SCT,FEW,0.17,WeatherDisplay:10.37,2013-11-18 22:31:00,
2013-11-18 22:36:00,37.8,35.4,29.87,WSW,258,5.8,5.8,91,0.00,SCT,FEW,0.17,WeatherDisplay:10.37,2013-11-18 22:36:00,
2013-11-18 22:41:00,37.8,35.4,29.87,WSW,258,4.6,4.6,91,0.00,SCT,FEW,0.17,WeatherDisplay:10.37,2013-11-18 22:41:00,
2013-11-18 22:46:00,37.8,35.4,29.87,WSW,258,8.1,8.1,91,0.00,SCT,FEW,0.17,WeatherDisplay:10.37,2013-11-18 22:46:00,
2013-11-18 22:51:00,37.6,35.2,29.87,WSW,258,9.2,9.2,91,0.00,SCT,FEW,0.17,WeatherDisplay:10.37,2013-11-18 22:51:00,
2013-11-18 22:56:00,37.6,35.5,29.87,WSW,258,6.9,6.9,92,0.00,SCT,FEW,0.17,WeatherDisplay:10.37,2013-11-18 22:56:00,
2013-11-18 23:01:00,37.6,35.5,29.87,WSW,258,6.9,6.9,92,0.00,BKN,FEW,0.17,WeatherDisplay:10.37,2013-11-18 23:01:00,
2013-11-18 23:06:00,37.6,35.5,29.87,SE,145,5.8,5.8,92,0.00,BKN,FEW,0.17,WeatherDisplay:10.37,2013-11-18 23:06:00,
2013-11-18 23:11:00,37.6,35.5,29.87,ESE,122,10.4,10.4,92,0.00,BKN,FEW,0.17,WeatherDisplay:10.37,2013-11-18 23:11:00,
2013-11-18 23:16:00,37.4,35.3,29.87,WSW,258,9.2,9.2,92,0.00,BKN,FEW,0.17,WeatherDisplay:10.37,2013-11-18 23:16:00,
2013-11-18 23:21:00,37.6,35.5,29.87,WSW,258,6.9,6.9,92,0.00,BKN,FEW,0.17,WeatherDisplay:10.37,2013-11-18 23:21:00,
2013-11-18 23:26:00,37.4,35.0,29.87,WSW,258,6.9,6.9,91,0.00,BKN,FEW,0.17,WeatherDisplay:10.37,2013-11-18 23:26:00,
2013-11-18 23:31:00,37.2,34.8,29.87,WSW,258,5.9,6.0,91,0.00,BKN,FEW,0.17,WeatherDisplay:10.37,2013-11-18 23:31:00,
2013-11-18 23:36:00,37.2,34.8,29.87,WSW,258,5.8,5.9,91,0.00,BKN,FEW,0.17,WeatherDisplay:10.37,2013-11-18 23:36:00,
2013-11-18 23:41:00,37.2,35.1,29.87,WSW,258,7.1,7.1,92,0.00,BKN,FEW,0.17,WeatherDisplay:10.37,2013-11-18 23:41:00,
2013-11-18 23:46:00,37.2,34.8,29.87,WSW,258,4.6,4.6,91,0.00,BKN,FEW,0.17,WeatherDisplay:10.37,2013-11-18 23:46:00,
2013-11-18 23:51:00,37.2,34.8,29.87,ESE,122,9.2,9.2,91,0.00,BKN,FEW,0.17,WeatherDisplay:10.37,2013-11-18 23:51:00,
2013-11-18 23:56:00,37.0,34.7,29.87,West,280,5.8,5.8,91,0.00,BKN,FEW,0.17,WeatherDisplay:10.37,2013-11-18 23:56:00,